軌道要素
Epoch 2014 Apr. 13.0 TT = JDT 2456760.5
T 2014 Apr. 17.78930 TT MPCW
q 4.6405403 (2000.0) P Q
n 0.04754903 Peri. 204.39029 +0.37232909 +0.91812317
a 7.5458523 Node 87.70532 -0.82764709 +0.39463300
e 0.3850211 Incl. 7.80676 -0.41996588 +0.03625796
P 20.7
From 53 observations 2013 June 1-2014 Aug. 22, mean residual 0".5.
|